Terminal Aerodrome Forecast
Issued by NWS Shreveport, LA

Home | Current Version | Previous Version | Text Only | Print | Product List | Glossary On
Versions: 1 2 3 4 5 6 7 8 9 10 11 12 13 14 15 16 17 18 19
000
FTUS44 KSHV 240100 AAA
TAFTXK
TAF AMD
KTXK 240120Z 2401/2424 06007KT P6SM -RA SCT110
     FM240200 36007KT P6SM FEW110 SCT250
     FM240900 VRB03KT 6SM BR SCT030 SCT250
     FM241200 32002KT 4SM BR BKN030
     FM241600 03005KT P6SM BKN040=

USA.gov is the U.S. government's official web portal to all federal, state and local government web resources and services.